EW3451 Weather Reports


time (UTC)temp
C
wind
direction
speed
KPH
gust
KPH
rain 1hr
cm
rain 24hr
cm
rain mn
cm
humidity
%
barometer
mb
20260504070333 6 208 0.0 4.8 0.00 0.00 0.00 72 1015.8
20260504050322 4 269 0.0 0.0 0.00 0.00 0.00 77 1016.4
20260504045329 4 269 0.0 0.0 0.00 0.00 0.00 77 1016.4
20260504044822 4 269 0.0 0.0 0.00 0.00 0.00 77 1016.4
20260504043830 4 269 0.0 1.6 0.00 0.00 0.00 76 1016.2
20260504043323 4 269 0.0 3.2 0.00 0.00 0.00 77 1016.3
20260504040819 4 269 0.0 3.2 0.00 0.00 0.00 76 1016.2
20260504040331 4 269 1.6 3.2 0.00 0.00 0.00 76 1016.1
20260504035845 4 269 1.6 3.2 0.00 0.00 0.00 74 1016.2
20260504034346 4 269 0.0 1.6 0.00 0.00 0.00 72 1016.1
20260504033838 5 269 0.0 0.0 0.00 0.00 0.00 73 1016.1
20260504033315 5 269 0.0 1.6 0.00 0.00 0.00 72 1016.1
20260504032904 5 269 0.0 4.8 0.00 0.00 0.00 72 1016.1
20260504032341 5 269 1.6 4.8 0.00 0.00 0.00 73 1016.0
20260504031349 5 269 0.0 3.2 0.00 0.00 0.00 72 1015.9
20260504030843 4 269 1.6 1.6 0.00 0.00 0.00 72 1015.9
20260504030336 4 269 1.6 1.6 0.00 0.00 0.00 71 1016.0
20260504025830 4 269 0.0 1.6 0.00 0.00 0.00 70 1016.0
20260504025403 5 269 0.0 1.6 0.00 0.00 0.00 70 1016.0
20260504024856 4 269 0.0 1.6 0.00 0.00 0.00 68 1016.0
20260504024332 5 269 0.0 0.0 0.00 0.00 0.00 68 1016.0
20260504023339 4 269 0.0 0.0 0.00 0.00 0.00 68 1016.1
20260504022832 4 269 0.0 1.6 0.00 0.00 0.00 67 1016.1
20260504022406 4 269 0.0 1.6 0.00 0.00 0.00 67 1016.1
20260504021858 4 269 0.0 1.6 0.00 0.00 0.00 66 1016.1
20260504020314 5 269 0.0 3.2 0.00 0.00 0.00 70 1016.1
20260504015848 5 269 1.6 3.2 0.00 0.00 0.00 69 1016.1
20260504015340 5 269 0.0 3.2 0.00 0.00 0.00 69 1016.1
20260504014833 5 269 1.6 3.2 0.00 0.00 0.00 68 1016.1
20260504014406 6 269 0.0 1.6 0.00 0.00 0.00 66 1016.0
20260504013859 6 269 0.0 0.0 0.00 0.00 0.00 63 1015.8
20260504013351 6 269 0.0 3.2 0.00 0.00 0.00 60 1015.7
20260504012845 6 269 0.0 3.2 0.00 0.00 0.00 57 1015.7
20260504012321 7 269 0.0 1.6 0.00 0.00 0.00 54 1015.8
20260504011854 7 269 0.0 1.6 0.00 0.00 0.00 55 1015.8
20260504010904 7 269 0.0 1.6 0.00 0.00 0.00 55 1015.7
20260504010356 7 269 0.0 0.0 0.00 0.00 0.00 56 1015.6
20260504005324 7 269 0.0 3.2 0.00 0.00 0.00 54 1015.3
20260504004818 7 269 1.6 3.2 0.00 0.00 0.00 51 1015.3
20260504003824 8 269 0.0 6.4 0.00 0.00 0.00 48 1015.3
20260504003356 8 269 1.6 6.4 0.00 0.00 0.00 47 1015.4
20260504002849 8 277 1.6 3.2 0.00 0.00 0.00 48 1015.4
20260504002343 8 277 0.0 1.6 0.00 0.00 0.00 46 1015.2
20260504001835 9 278 0.0 3.2 0.00 0.00 0.00 47 1015.0
20260504001329 9 277 0.0 4.8 0.00 0.00 0.00 45 1015.2
20260504000401 9 277 1.6 6.4 0.00 0.00 0.00 44 1015.3
20260503235850 10 276 3.2 6.4 0.00 0.00 0.00 43 1015.3
20260503235327 10 297 0.0 8.0 0.00 0.00 0.00 43 1015.2
20260503234901 10 265 1.6 9.7 0.00 0.00 0.00 43 1015.2
20260503234352 10 264 3.2 9.7 0.00 0.00 0.00 42 1015.1
20260503233845 10 259 6.4 14.5 0.00 0.00 0.00 41 1015.4
20260503233338 10 302 4.8 14.5 0.00 0.00 0.00 41 1015.5
20260503232831 11 281 4.8 12.9 0.00 0.00 0.00 39 1015.4
20260503232405 11 248 3.2 11.3 0.00 0.00 0.00 40 1015.4
20260503231857 11 244 4.8 11.3 0.00 0.00 0.00 38 1015.3
20260503231335 11 281 6.4 16.1 0.00 0.00 0.00 38 1015.2
20260503230828 12 243 8.0 16.1 0.00 0.00 0.00 38 1015.5
20260503230402 12 285 8.0 17.7 0.00 0.00 0.00 37 1015.5
20260503225352 12 277 6.4 14.5 0.00 0.00 0.00 35 1015.6
20260503224846 12 239 6.4 12.9 0.00 0.00 0.00 36 1015.7
20260503224336 12 288 4.8 16.1 0.00 0.00 0.00 39 1015.7
20260503223814 12 233 4.8 16.1 0.00 0.00 0.00 34 1015.6
20260503223347 12 290 6.4 19.3 0.00 0.00 0.00 37 1015.6
20260503222840 13 210 8.0 19.3 0.00 0.00 0.00 38 1015.6
20260503222334 13 297 4.8 12.9 0.00 0.00 0.00 39 1015.6
20260503221826 13 233 8.0 16.1 0.00 0.00 0.00 39 1015.6
20260503220856 13 308 8.0 17.7 0.00 0.00 0.00 38 1015.6
20260503220350 13 276 6.4 22.5 0.00 0.00 0.00 37 1015.5
20260503215827 13 228 12.9 22.5 0.00 0.00 0.00 35 1015.5
20260503215321 13 254 3.2 9.7 0.00 0.00 0.00 35 1015.6
20260503214814 13 174 4.8 11.3 0.00 0.00 0.00 36 1015.6
20260503213841 13 318 6.4 16.1 0.00 0.00 0.00 35 1015.6
20260503213335 13 262 6.4 17.7 0.00 0.00 0.00 39 1015.6
20260503212828 13 283 6.4 17.7 0.00 0.00 0.00 40 1015.7
20260503212401 13 274 6.4 20.9 0.00 0.00 0.00 38 1015.7
20260503211854 13 268 9.7 20.9 0.00 0.00 0.00 42 1015.7
20260503211331 13 192 6.4 14.5 0.00 0.00 0.00 39 1015.7
20260503210401 13 245 11.3 20.9 0.00 0.00 0.00 38 1015.8
20260503205853 13 305 8.0 17.7 0.00 0.00 0.00 42 1015.8
20260503204901 13 168 6.4 22.5 0.00 0.00 0.00 38 1015.8
20260503204354 13 229 8.0 20.9 0.00 0.00 0.00 39 1015.8
20260503203846 13 264 9.7 16.1 0.00 0.00 0.00 41 1015.9
20260503203322 13 221 8.0 16.1 0.00 0.00 0.00 42 1016.0
20260503202856 13 174 6.4 12.9 0.00 0.00 0.00 39 1016.0
20260503202349 13 331 6.4 17.7 0.00 0.00 0.00 38 1016.0
20260503201843 12 249 8.0 17.7 0.00 0.00 0.00 43 1016.1
20260503201335 12 238 8.0 14.5 0.00 0.00 0.00 42 1016.0
20260503200829 12 323 3.2 9.7 0.00 0.00 0.00 40 1016.1
20260503200319 12 234 3.2 14.5 0.00 0.00 0.00 41 1016.2
20260503195330 12 227 11.3 19.3 0.00 0.00 0.00 41 1016.5
20260503194903 12 23 6.4 16.1 0.00 0.00 0.00 39 1016.5
20260503193829 11 356 6.4 19.3 0.00 0.00 0.00 40 1016.6
20260503193321 12 18 8.0 17.7 0.00 0.00 0.00 39 1016.7
20260503192914 12 271 6.4 17.7 0.00 0.00 0.00 37 1016.8
20260503192403 12 306 9.7 16.1 0.00 0.00 0.00 42 1016.9
20260503191855 12 267 3.2 12.9 0.00 0.00 0.00 42 1016.8
20260503191346 12 179 4.8 19.3 0.00 0.00 0.00 45 1017.1
20260503190840 11 1 9.7 19.3 0.00 0.00 0.00 42 1017.1
20260503190317 12 6 6.4 12.9 0.00 0.00 0.00 42 1017.2
20260503185850 11 14 4.8 16.1 0.00 0.00 0.00 45 1017.2
20260503184858 11 309 3.2 12.9 0.00 0.00 0.00 49 1017.4
20260503184350 11 46 4.8 16.1 0.00 0.00 0.00 43 1017.4
20260503183842 11 1 8.0 16.1 0.00 0.00 0.00 44 1017.3
20260503183336 11 208 3.2 14.5 0.00 0.00 0.00 43 1017.5
20260503182829 11 265 9.7 16.1 0.00 0.00 0.00 44 1017.5
20260503182403 11 241 4.8 17.7 0.00 0.00 0.00 46 1017.6
20260503181355 11 217 1.6 11.3 0.00 0.00 0.00 50 1017.7
20260503180848 11 309 6.4 16.1 0.00 0.00 0.00 46 1017.8
20260503180341 11 278 8.0 16.1 0.00 0.00 0.00 40 1017.8
20260503175834 11 6 3.2 11.3 0.00 0.00 0.00 48 1017.8
20260503175327 10 260 4.8 19.3 0.00 0.00 0.00 49 1017.9
20260503174820 10 252 9.7 19.3 0.00 0.00 0.00 47 1018.0
20260503173830 10 289 4.8 20.9 0.00 0.00 0.00 45 1017.9
20260503173404 10 249 6.4 14.5 0.00 0.00 0.00 51 1018.0
20260503172856 10 307 4.8 16.1 0.00 0.00 0.00 49 1018.1
20260503172348 10 272 6.4 19.3 0.00 0.00 0.00 50 1018.2
20260503171842 10 250 6.4 16.1 0.00 0.00 0.00 50 1018.3
20260503171335 10 352 3.2 16.1 0.00 0.00 0.00 49 1018.2
20260503170828 10 262 6.4 16.1 0.00 0.00 0.00 46 1018.3
20260503170402 10 302 6.4 16.1 0.00 0.00 0.00 50 1018.5
20260503150817 6 198 3.2 12.9 0.00 0.00 0.00 58 1019.1
20260503131349 4 194 3.2 9.7 0.00 0.00 0.00 66 1018.8
20260503130843 3 236 4.8 12.9 0.00 0.00 0.00 67 1018.8
20260503130335 3 14 6.4 12.9 0.00 0.00 0.00 67 1018.6
20260503110828 -2 281 0.0 3.2 0.00 0.00 0.00 94 1017.4
20260503110402 -2 281 0.0 3.2 0.00 0.00 0.00 94 1017.3
20260503081343 0 307 3.2 4.8 0.00 0.00 0.00 87 1015.6
20260503080835 0 53 1.6 8.0 0.00 0.00 0.00 86 1015.7
20260503080329 0 275 1.6 8.0 0.00 0.00 0.00 85 1015.6
20260503072841 0 359 3.2 8.0 0.00 0.00 0.00 82 1015.5